Weather History for Sioux Falls, SD

Change the Weather History Date:

Wednesday, October 9, 2013

  Actual Average Record
Temperature  
Mean Temperature 65 °F 51 °F  
Max Temperature 78 °F 63 °F 89 °F (1980)
Min Temperature 52 °F 39 °F 18 °F (1906)
Degree Days  
Heating Degree Days 0 14  
Month to date heating degree days 71 115  
Since 1 July heating degree days 171 319  
Cooling Degree Days 0 0  
Month to date cooling degree days 0 0  
Year to date cooling degree days 784 685  
Growing Degree Days 15 (Base 50)    
Moisture  
Dew Point 47 °F    
Average Humidity 53    
Maximum Humidity 80    
Minimum Humidity 31    
Precipitation  
Precipitation 0.00 in 0.08 in 4.54 in (1973)
Month to date precipitation 0.24 0.77  
Year to date precipitation 21.43 22.93  
Snow  
Snow 0.00 in 0.00 in 4.50 in (1970)
Month to date snowfall 0.0 0.1  
Since 1 July snowfall 0.0 0.1  
Since 1 September snowfall 0.0 0.1  
Snow Depth 0.00 in    
Sea Level Pressure  
Sea Level Pressure 29.92 in    
Wind  
Wind Speed 12 mph (SSE)    
Max Wind Speed 20 mph    
Max Gust Speed 26 mph    
Visibility 10 miles    
Events      
T = Trace of Precipitation, MM = Missing Value Source: NWS Daily Summary

Daily Weather History Graph

Daily Weather History Graph

Search for Another Location

Airport:

Trip Planner

Search our weather history database for the weather conditions in past years. The results will help you decide how hot, cold, wet, or windy it might be!

Date:

Astronomy

Oct. 09, 2013 Rise Set
Actual Time 7:34 AM CDT 6:53 PM CDT
Civil Twilight 7:05 AM CDT 7:22 PM CDT
Nautical Twilight 6:32 AM CDT 7:55 PM CDT
Astronomical Twilight 5:59 AM CDT 8:28 PM CDT
Moon 12:38 PM CDT (10/9) 10:21 PM CDT (10/9)
Length of Visible Light 12h 16m
Length of Day
11h 19m
Waxing Crescent, 25% of the Moon is Illuminated
Oct 9
Waxing Crescent
Oct 11
First Quarter
Oct 18
Full
Oct 26
Last Quarter
Nov 3
New

Hourly Weather History & Observations

Time (CDT) Temp. Dew Point Humidity Pressure Visibility Wind Dir Wind Speed Gust Speed Precip Events Conditions
12:56 AM 63.0 °F 44.1 °F 50% 29.86 in 10.0 mi South 13.8 mph 24.2 mph N/A   Clear
1:56 AM 61.0 °F 44.1 °F 54% 29.86 in 10.0 mi South 13.8 mph - N/A   Clear
2:56 AM 60.1 °F 44.1 °F 55% 29.87 in 10.0 mi South 13.8 mph - N/A   Clear
3:56 AM 57.9 °F 45.0 °F 62% 29.88 in 10.0 mi South 11.5 mph - N/A   Clear
4:56 AM 55.9 °F 45.0 °F 67% 29.91 in 10.0 mi South 8.1 mph - N/A   Scattered Clouds
5:56 AM 55.0 °F 46.0 °F 72% 29.93 in 10.0 mi South 10.4 mph - N/A   Scattered Clouds
6:56 AM 55.0 °F 46.0 °F 72% 29.94 in 10.0 mi South 10.4 mph - N/A   Scattered Clouds
7:56 AM 52.0 °F 46.0 °F 80% 29.94 in 10.0 mi SE 5.8 mph - N/A   Partly Cloudy
8:56 AM 55.9 °F 46.9 °F 72% 29.96 in 10.0 mi South 10.4 mph - N/A   Partly Cloudy
9:56 AM 59.0 °F 48.0 °F 67% 29.96 in 10.0 mi South 12.7 mph - N/A   Partly Cloudy
10:56 AM 63.0 °F 48.0 °F 58% 29.96 in 10.0 mi South 12.7 mph - N/A   Partly Cloudy
11:56 AM 66.0 °F 48.9 °F 54% 29.96 in 10.0 mi South 9.2 mph - N/A   Partly Cloudy
12:56 PM 69.1 °F 48.9 °F 49% 29.95 in 10.0 mi SSW 9.2 mph - N/A   Partly Cloudy
1:56 PM 73.0 °F 48.9 °F 42% 29.93 in 10.0 mi SSE 10.4 mph - N/A   Partly Cloudy
2:56 PM 75.0 °F 48.0 °F 38% 29.90 in 10.0 mi SE 12.7 mph 18.4 mph N/A   Scattered Clouds
3:56 PM 77.0 °F 48.0 °F 36% 29.88 in 10.0 mi SSE 16.1 mph 21.9 mph N/A   Scattered Clouds
4:56 PM 77.0 °F 48.0 °F 36% 29.88 in 10.0 mi SSE 16.1 mph 26.5 mph N/A   Partly Cloudy
5:56 PM 75.0 °F 48.0 °F 38% 29.88 in 10.0 mi SSE 18.4 mph - N/A   Mostly Cloudy
6:56 PM 72.0 °F 48.0 °F 43% 29.89 in 10.0 mi SSE 12.7 mph - N/A   Mostly Cloudy
7:56 PM 69.1 °F 48.0 °F 47% 29.91 in 10.0 mi SSE 9.2 mph - N/A   Mostly Cloudy
8:56 PM 66.9 °F 48.9 °F 52% 29.93 in 10.0 mi SSE 9.2 mph - N/A   Scattered Clouds
9:56 PM 64.9 °F 48.9 °F 56% 29.94 in 10.0 mi SSE 10.4 mph - N/A   Partly Cloudy
10:56 PM 63.0 °F 48.9 °F 60% 29.94 in 10.0 mi SSE 13.8 mph - N/A   Partly Cloudy
11:56 PM 62.1 °F 48.9 °F 62% 29.94 in 10.0 mi SSE 11.5 mph - N/A   Scattered Clouds